Charleston, SC

6:22 PM EDT on April 23, 2017 (GMT -0400)
Charleston Air Force Base-International

Weather History for KCHS - October, 2014

Change the Weather History Date:

Tuesday, October 14, 2014

  Actual Average Record
Temperature  
Mean Temperature 79 °F 67 °F  
Max Temperature 87 °F 78 °F 88 °F (1990)
Min Temperature 71 °F 57 °F 39 °F (1988)
Degree Days  
Heating Degree Days 0 2  
Month to date heating degree days 6 16  
Since 1 July heating degree days 6 19  
Cooling Degree Days 14 4  
Month to date cooling degree days 133 78  
Year to date cooling degree days 2701 2216  
Growing Degree Days 29 (Base 50)    
Moisture  
Dew Point 70 °F    
Average Humidity 72    
Maximum Humidity 87    
Minimum Humidity 57    
Precipitation  
Precipitation 0.35 in 0.12 in 1.22 in (1954)
Month to date precipitation 0.36 1.99  
Year to date precipitation 44.35 43.73  
Sea Level Pressure  
Sea Level Pressure 29.99 in    
Wind  
Wind Speed 11 mph (South)    
Max Wind Speed 23 mph    
Max Gust Speed 29 mph    
Visibility 10 miles    
Events Rain , Thunderstorm    
T = Trace of Precipitation, MM = Missing Value Source: NWS Daily Summary

Daily Weather History Graph

Daily Weather History Graph

Search for Another Location

Airport or City:

Trip Planner

Search our weather history database for the weather conditions in past years. The results will help you decide how hot, cold, wet, or windy it might be!

Date:

Astronomy

Oct. 14, 2014 Rise Set
Actual Time 7:23 AM EDT 6:48 PM EDT
Civil Twilight 6:58 AM EDT 7:13 PM EDT
Nautical Twilight 6:30 AM EDT 7:41 PM EDT
Astronomical Twilight 6:01 AM EDT 8:10 PM EDT
Moon No Moon Rise 1:13 PM EDT (10/14)
Length of Visible Light 12h 14m
Length of Day
11h 24m
Waning Gibbous, 61% of the Moon is Illuminated
Oct 14
Waning Gibbous
Oct 15
Last Quarter
Oct 23
New
Oct 30
First Quarter
Nov 6
Full

Hourly Weather History & Observations

Time (EDT) Temp. Heat Index Dew Point Humidity Pressure Visibility Wind Dir Wind Speed Gust Speed Precip Events Conditions
12:56 AM 79.0 °F - 72.0 °F 79% 30.08 in 10.0 mi South 10.4 mph - N/A   Scattered Clouds
1:56 AM 77.0 °F - 71.1 °F 82% 30.07 in 10.0 mi SSE 9.2 mph - N/A   Scattered Clouds
2:56 AM 77.0 °F - 70.0 °F 79% 30.05 in 10.0 mi South 8.1 mph - N/A   Scattered Clouds
3:56 AM 75.0 °F - 70.0 °F 84% 30.04 in 10.0 mi South 4.6 mph - N/A   Partly Cloudy
4:56 AM 75.0 °F - 70.0 °F 84% 30.04 in 10.0 mi SE 5.8 mph - N/A   Scattered Clouds
5:56 AM 73.9 °F - 70.0 °F 87% 30.03 in 10.0 mi SE 6.9 mph - N/A   Scattered Clouds
6:56 AM 75.0 °F - 71.1 °F 87% 30.04 in 10.0 mi Calm Calm - N/A   Scattered Clouds
7:56 AM 75.0 °F - 71.1 °F 87% 30.05 in 10.0 mi SSE 5.8 mph - N/A   Scattered Clouds
8:56 AM 80.1 °F 83.8 °F 72.0 °F 76% 30.04 in 10.0 mi South 12.7 mph - N/A   Scattered Clouds
9:56 AM 84.0 °F 89.0 °F 71.1 °F 65% 30.05 in 10.0 mi South 11.5 mph - N/A   Mostly Cloudy
10:56 AM 84.9 °F 88.2 °F 68.0 °F 57% 30.04 in 10.0 mi South 17.3 mph 27.6 mph N/A   Mostly Cloudy
11:56 AM 84.0 °F 87.0 °F 68.0 °F 58% 30.02 in 10.0 mi South 13.8 mph - N/A   Mostly Cloudy
12:56 PM 84.9 °F 88.8 °F 69.1 °F 59% 30.01 in 10.0 mi South 17.3 mph 25.3 mph N/A   Mostly Cloudy
1:56 PM 86.0 °F 90.1 °F 69.1 °F 57% 29.98 in 10.0 mi South 18.4 mph 28.8 mph N/A   Mostly Cloudy
2:56 PM 84.0 °F 88.4 °F 70.0 °F 63% 29.96 in 10.0 mi South 15.0 mph 24.2 mph N/A   Mostly Cloudy
3:56 PM 84.0 °F 88.4 °F 70.0 °F 63% 29.94 in 10.0 mi South 20.7 mph 28.8 mph N/A   Mostly Cloudy
4:56 PM 82.9 °F 87.5 °F 71.1 °F 67% 29.93 in 10.0 mi South 18.4 mph - N/A   Mostly Cloudy
5:56 PM 82.0 °F 86.3 °F 71.1 °F 69% 29.94 in 10.0 mi South 13.8 mph 24.2 mph N/A   Mostly Cloudy
6:56 PM 81.0 °F 85.2 °F 72.0 °F 74% 29.94 in 10.0 mi South 12.7 mph - N/A   Scattered Clouds
7:56 PM 77.0 °F - 66.9 °F 71% 29.96 in 10.0 mi West 16.1 mph 23.0 mph 0.00 in Rain Light Rain
8:02 PM 73.4 °F - 68.0 °F 83% 29.96 in 10.0 mi West 13.8 mph - 0.00 in Rain Light Rain
8:13 PM 73.4 °F - 68.0 °F 83% 29.97 in 8.0 mi WSW 17.3 mph 23.0 mph 0.00 in Rain , Thunderstorm Light Thunderstorms and Rain
8:19 PM 71.6 °F - 68.0 °F 88% 29.96 in 1.8 mi WSW 11.5 mph 23.0 mph 0.11 in Rain , Thunderstorm Heavy Thunderstorms and Rain
8:41 PM 71.6 °F - 68.0 °F 88% 29.95 in 5.0 mi SW 8.1 mph - 0.31 in Rain , Thunderstorm Light Thunderstorms and Rain
8:56 PM 71.1 °F - 68.0 °F 90% 29.95 in 8.0 mi South 5.8 mph - 0.33 in Rain , Thunderstorm Light Thunderstorms and Rain
9:28 PM 71.6 °F - 69.8 °F 94% 29.92 in 10.0 mi SSE 6.9 mph - 0.02 in Rain Light Rain
9:56 PM 73.0 °F - 69.1 °F 87% 29.94 in 10.0 mi South 8.1 mph - 0.02 in   Mostly Cloudy
10:56 PM 73.0 °F - 70.0 °F 90% 29.95 in 10.0 mi SSE 6.9 mph - N/A   Mostly Cloudy
11:56 PM 73.0 °F - 70.0 °F 90% 29.94 in 10.0 mi SSW 4.6 mph - 0.00 in   Mostly Cloudy